Regional Weather Roundup
Issued by NWS

Home | Current Version | Previous Version | Text Only | Print | Product List | Glossary On
Versions: 1 2 3 4 5 6 7 8 9 10 11 12 13 14 15 16 17 18 19 20 21 22 23 24 25 26 27 28 29 30 31 32 33 34 35 36 37 38 39 40 41 42 43 44 45 46 47 48 49 50
000
ASUS43 KDTX 201310
RWRMI
MICHIGAN HOURLY REGIONAL WEATHER ROUNDUP
NATIONAL WEATHER SERVICE DETROIT/PONTIAC MI
ISSUED BY NATIONAL WEATHER SERVICE GRAND RAPIDS MI
900 AM EDT SUN MAY 20 2018

NOTE: "FAIR" INDICATES FEW OR NO CLOUDS BELOW 12,000 FEET WITH NO
SIGNIFICANT WEATHER AND/OR OBSTRUCTION TO VISIBILITY.

MIZ047>049-052>055-059>063-066>070-074>076-081>083-201400-
SOUTHEAST LOWER MICHIGAN

CITY           SKY/WX    TMP DP  RH WIND       PRES   REMARKS
ADRIAN         CLOUDY    60  56  86 N5        30.12R
ALMA           FAIR      51  46  84 N8        30.16R
ANN ARBOR      CLOUDY    58  55  90 N6        30.10R
BAD AXE        CLOUDY    47  44  90 N13G18    30.14R
DETROIT CITY   CLOUDY    60  52  74 NE5       30.10R
DETROIT        CLOUDY    61  54  77 N7        30.10R
FLINT          CLOUDY    55  52  89 N8        30.13R
GROSSE ILE     CLOUDY    58  56  94 CALM      30.09S
HILLSDALE      CLOUDY    57  54  88 E3        30.11R
HOWELL         CLOUDY    57  53  88 CALM      30.12R

CITY           SKY/WX    TMP DP  RH WIND       PRES   REMARKS
JACKSON        CLOUDY    56  54  93 NE3       30.11R
LANSING        CLOUDY    54  51  90 N5        30.14R
MASON          CLOUDY    56  52  86 N3        30.12R
MONROE         CLOUDY    58  56  93 SE3       30.10R
MT. CLEMENS    PTSUNNY   58  58 100 N8        30.09R
PONTIAC        PTSUNNY   58  52  80 N6        30.10R
PORT HOPE        N/A     46  43  89 N6        30.12R
PORT HURON     CLOUDY    54  50  87 N6        30.11R
TRI CITIES     CLOUDY    51  45  79 N12       30.16R
YPSILANTI      CLOUDY    61  55  81 NW7       30.11R
$$
MIZ043>046-050>051-056>058-064>065-071>073-077>080-201400-
SOUTHWEST LOWER MICHIGAN

CITY           SKY/WX    TMP DP  RH WIND       PRES   REMARKS
BATTLE CREEK   PTSUNNY   58  52  80 NE7       30.13R
BENTON HARBOR  CLOUDY    52  48  86 NE5       30.12S
BIG RAPIDS     PTSUNNY   46  41  83 N6        30.16R
COLDWATER      CLOUDY    58  55  88 CALM      30.11S
HOLLAND        CLOUDY    53  47  79 N6        30.15R
GRAND RAPIDS   CLOUDY    53  47  79 NE7       30.13R
KALAMAZOO      FAIR      60  52  74 NE6       30.12S
MARSHALL       CLOUDY    56  55  94 CALM      30.13R
MOUNT PLEASANT CLOUDY    49  44  83 N8        30.16R
MUSKEGON       LGT RAIN  49  41  74 N12       30.16R
STURGIS        CLOUDY    58  54  89 CALM      30.11S
$$
MIZ016>042-201400-
NORTHERN LOWER MICHIGAN

CITY           SKY/WX    TMP DP  RH WIND       PRES   REMARKS
ALPENA         FAIR      50  43  77 N13       30.16R
BEAVER ISLAND  FAIR      45  39  77 N6        30.21R
BELLAIRE       CLOUDY    44  39  83 CALM      30.20R
CADILLAC       CLOUDY    42  40  95 N6        30.17R
CHARLEVOIX     FAIR      43  43  99 N8        30.23R
GAYLORD        CLOUDY    43  41  93 NE6       30.16R
HOUGHTON LAKE  CLOUDY    46  42  86 N8        30.16R
MANISTEE       CLOUDY    44  39  82 N6        30.20R
OSCODA         CLOUDY    51  44  78 N9        30.14R
PELLSTON       FAIR      48  41  76 N9        30.19R
TRAVERSE CITY  CLOUDY    44  39  82 N7        30.20R
LUDINGTON      CLOUDY    43  40  89 N5        30.19R
$$
MIZ007>008-015-201400-
EASTERN UPPER MICHIGAN

CITY           SKY/WX    TMP DP  RH WIND       PRES   REMARKS
KINROSS        FAIR      45  37  73 N13       30.18R
MACKINAC ISLAN FAIR      47  41  78 N10       30.18R
NEWBERRY       FAIR      40  38  93 N10       30.20S WCI  33
S. S. MARIE    FAIR      47  35  63 N6        30.19R
$$
MIZ004>006-011>014-085-201400-
CENTRAL UPPER MICHIGAN

CITY           SKY/WX    TMP DP  RH WIND       PRES   REMARKS
MANISTIQUE     FAIR      40  37  89 N10       30.21R WCI  34
ESCANABA       FAIR      42  33  70 NW7       30.24R
SAWYER-GWINN   SUNNY     41  30  65 NE8       30.24R
$$
MIZ001>003-009>011-084-201400-
WESTERN UPPER MICHIGAN

CITY           SKY/WX    TMP DP  RH WIND       PRES   REMARKS
IRON MOUNTAIN  FAIR      43  32  65 N3        30.23R
HOUGHTON       FAIR      44  35  70 W9        30.26R
COPPER HARBOR    N/A     47  36  65 CALM      30.25R
IRONWOOD       FAIR      41  34  76 E3        30.28R
$$

ABBREVIATIONS USED IN REMARKS
   TC - TEMPERATURE IN CELSIUS
  WCI - WIND CHILL INDEX
   HX - HEAT INDEX
  VSB - VISIBILITY





USA.gov is the U.S. government's official web portal to all federal, state and local government web resources and services.